Torna al catalogo

FENGYUN 1C DEB

AttivoSSO
NORAD 38491·DEBRIS·🇨🇳 China

Lanciato May 10, 1999 da Taiyuan Satellite Launch Center

Loading…

Prossimi Passaggi (prossime 24 ore)

TLE

In scadenzaSource: Space-Track

Epoca: Sep 4, 2026, 06:20 UTC

1 38491U 99025ESA 26247.26441806  .00000314  00000-0  20771-3 0  9990
2 38491  98.9362 251.0814 0225410  15.0775 345.6964 13.96679907701668

Traccia FENGYUN 1C DEB in tempo reale con AllMySat

Download on the App Store